Regional Weather Roundup
Issued by NWS Midland/Odessa, TX

Skip options and go directly to product.
Home | Oldest Version | Previous Version | Current Version | All | Text Only | Save Text | Print | Product List | Glossary Off

Skip product version selection by date and time.   

228
ASUS44 KMAF 230002
RWRMAF
MIDLAND AREA WEATHER ROUNDUP
NATIONAL WEATHER SERVICE MIDLAND TX
700 PM CDT TUE JUL 22 2014

...IN SOUTHWEST TEXAS AND SOUTHEAST NEW MEXICO...

CITY           SKY/WX    TMP DP  RH WIND       PRES   REMARKS
ALPINE         PTSUNNY   90  54  29 E10       30.21S
ANDREWS        NOT AVBL
ARTESIA        MOSUNNY   93  52  24 SE6       30.12R
BIG SPRING     PTSUNNY   97  57  26 E10       30.09R
CARLSBAD       PTSUNNY   98  50  19 E15       30.07S
DRYDEN           N/A    100  59  25 E17G24    30.01S HX 100
FORT STOCKTON  MOSUNNY   94  58  29 E18       30.07S
GUAD PASS      MOSUNNY   85  51  31 NE21      30.26S
HOBBS          PTSUNNY   91  50  24 E13       30.15S
MARFA          PTSUNNY   84  59  42 S8        30.21S
MIDLAND AIRPK  CLOUDY    94  58  30 SE5       30.09S
MIDLAND INTL   CLOUDY    92  61  35 E8        30.08F
ODESSA         PTSUNNY   93  56  28 E15       30.10S
PECOS          MOSUNNY   99  56  23 E13G23    30.02F
PRESIDIO       FAIR     101  53  20 E13       29.97S
SEMINOLE       CLOUDY    91  54  28 E10       30.14S
SNYDER         MOSUNNY   96  60  29 SE8       30.07F
WINK           MOSUNNY   98  53  22 E15       30.04S
$$
...OTHER STATIONS IN TEXAS...

CITY           SKY/WX    TMP DP  RH WIND       PRES   REMARKS
ABILENE        SUNNY     96  61  31 E9        30.05S
AMARILLO       LGT RAIN  85  63  47 S15G24    30.18R
AUSTIN         MOSUNNY   94  68  42 NE13      29.97F
BROWNSVILLE    MOSUNNY   88  77  69 SE16G23   29.96S HX 100
CORPUS CHRISTI MOSUNNY   90  75  61 SE16      29.96S HX 100
DALLAS FTW     MOSUNNY   94  70  45 E8        30.01S HX 100
DEL RIO        SUNNY     99  63  30 E13G18    29.95S HX 101
EL PASO        TSTM      82  58  43 E16G26    30.11R
HOUSTON INT    MOSUNNY   92  74  55 NE7       29.96F HX 101
LUBBOCK        CLOUDY    84  64  50 CALM      30.14F
SAN ANGELO     SUNNY     95  63  34 E13       30.03S
SAN ANTONIO    MOSUNNY   94  65  38 SE6       29.98F
WACO           MOSUNNY   95  70  44 E5        29.98F HX 101
WICHITA FALLS  NOT AVBL
$$
...OTHER LOCATIONS IN NEW MEXICO...

CITY           SKY/WX    TMP DP  RH WIND       PRES   REMARKS
ALAMAGORDO     CLOUDY    84  50  30 NE12      30.15R
ALBUQUERQUE    PTSUNNY   91  46  21 E17G23    30.23R
CANNON AFB     SUNNY     89  64  44 S10       30.21S
CLOVIS         NOT AVBL
HOLLOMAN AFB   CLOUDY    91  51  25 N9        30.14R
ROSWELL        PTSUNNY   91  58  32 SE17G26   30.14R
RUIDOSO        CLOUDY    63  57  82 MISG      30.42S
SANTA FE       PTSUNNY   87  50  27 SE14      30.31S
TRUTH OR CONSE CLOUDY    88  52  29 E25G35    30.18R
TUCUMCARI      MOSUNNY   94  60  32 SE13      30.16R
$$

USA.gov is the U.S. government's official web portal to all federal, state and local government web resources and services.